Location: Unspecified
(29.0040°N, 0.0000°E)
Time: 04:11:02
(UTC+00:00)

LightSail 2 - Visible Passes

Search period start: 20 November 2019 00:00
Search period end: 30 November 2019 00:00
Orbit: 699 x 728 km, 24.0° (Epoch: 18 November)

Date Brightness Start Highest point End Pass type
(mag) Time Alt. Az. Time Alt. Az. Time Alt. Az.
20 Nov 7.5 03:39:24 18° SE 03:39:24 18° SE 03:40:51 10° SE visible
20 Nov 7.1 05:18:23 11° WSW 05:21:13 17° SSW 05:24:32 10° SSE visible
21 Nov 6.9 04:24:07 21° S 04:24:07 21° S 04:27:22 10° SSE visible
22 Nov 8.0 03:29:52 10° SE 03:29:52 10° SE 03:29:57 10° SE visible
22 Nov 7.5 05:10:09 10° SSW 05:10:39 10° SSW 05:11:10 10° SSW visible
23 Nov 7.5 04:14:36 12° S 04:14:36 12° S 04:15:32 10° S visible
24 Nov 7.6 19:14:40 10° S 19:15:00 11° S 19:15:00 11° S visible
26 Nov 7.0 19:02:27 10° SSW 19:05:24 19° S 19:05:24 19° S visible
27 Nov 7.2 18:05:26 10° SSW 18:08:14 15° SSE 18:11:02 10° SE visible
27 Nov 7.5 19:48:43 10° SW 19:50:04 17° SW 19:50:04 17° SW visible
28 Nov 6.4 18:51:07 10° SW 18:55:26 28° SSE 18:55:44 27° SSE visible
29 Nov 6.8 17:53:38 10° SSW 17:57:37 22° SSE 18:01:23 11° ESE visible
29 Nov 7.0 19:37:56 10° WSW 19:40:21 25° SW 19:40:21 25° SW visible
